www.pogodaiklimat.ru

Погода и климат >> Архив погоды >> Азербайджан >> Лянкяран


АРХИВ ПОГОДЫ в Лянкяране

Время (UTC), дата Ветер
(напр.,м/с)
 
Видим.   Явления Облачность Т
(С)
Тd
(С)
f
(%)
Тe
(С)
Тes
(С)
Комфортность P
(гПа)
Po
(гПа)
Тmin
(С)
Tmax
(С)
R
(мм)
R24
(мм)
S
(см)
15 18.08 Ю 1 20 км ясно +29.0 +16.5 47 +32 +33 душно 1009.0 1010.5
18 18.08 СЗ 1 4000 м ясно +22.5 +15.8 66 +27 +27 душно 1009.9 1011.4 +32.7
21 18.08 З 1 4000 м 4/0
[Ac lent]
+18.8 +14.7 77 +21 +21 комфорт 1010.4 1011.9
00 19.08 З 1 4000 м ясно +16.5 +12.5 77 +17 +17 прохладно 1011.2 1012.7
03 19.08 З 1 20 км 4/4 600 м
[Sc Ac lent]
+16.2 +12.8 80 +17 +17 холодно 1012.7 1014.2
06 19.08 С 1 20 км ясно +27.4 +21.9 72 +35 +48 очень
душно
1014.1 1015.6 +15.4
09 19.08 В 1 20 км ясно +31.3 +19.6 50 +37 +58 опасность
солнечного
удара
1013.6 1015.1
12 19.08 Ю 4 20 км ясно +30.3 +20.0 54 +37 +43 очень
душно
1013.0 1014.5
15 19.08 Ю 2 10 км ясно +27.7 +21.7 70 +36 +36 очень
душно
1013.4 1014.9
18 19.08 Ю 1 4000 м ясно +23.5 +20.5 83 +29 +29 душно 1014.7 1016.2 +31.6
21 19.08 З 1 4000 м ясно +18.5 +13.9 75 +20 +20 прохладно 1014.9 1016.4
00 20.08 ЮЗ 1 4000 м ясно +16.6 +15.1 91 +17 +17 прохладно 1014.9 1016.4
03 20.08 ЮВ 1 20 км ясно +17.8 +13.1 74 +19 +20 прохладно 1015.6 1017.1
06 20.08 С 4 20 км ясно +29.5 +14.1 39 +31 +39 жарко 1016.6 1018.1 +16.0
09 20.08 В 2 20 км ясно +33.1 +12.5 29 +34 +51 опасность
солнечного
удара
1016.0 1017.5
12 20.08 ЮВ 2 20 км ясно +33.7 +10.5 24 +33 +42 жарко 1014.4 1015.9
15 20.08 ЮВ 2 10 км ясно +29.5 +16.4 45 +33 +33 душно 1014.3 1015.8
18 20.08 ЮЗ 1 4000 м ясно +23.1 +15.5 62 +27 +27 душно 1015.1 1016.6 +35.0
21 20.08 З 1 4000 м ясно +19.7 +15.9 79 +23 +23 комфорт 1014.4 1015.8
00 21.08 СЗ 1 4000 м ясно +17.3 +11.2 67 +18 +18 прохладно 1014.4 1015.9
03 21.08 З 1 20 км ясно +19.1 +11.4 61 +21 +22 комфорт 1015.5 1017.0
06 21.08 В 2 20 км ясно +28.5 +16.8 49 +32 +43 душно 1015.7 1017.2 +16.5
09 21.08 В 2 20 км ясно +31.1 +16.6 42 +34 +52 опасность
солнечного
удара
1014.5 1016.0
12 21.08 В 2 20 км ясно +30.2 +20.1 55 +37 +45 очень
душно
1013.2 1014.7
15 21.08 штиль 0 20 км ясно +27.7 +21.4 69 +35 +35 очень
душно
1012.2 1013.7
18 21.08 Ю 1 4000 м ясно +23.9 +21.5 86 +30 +30 очень
душно
1012.1 1013.6 +31.6
21 21.08 Ю 1 4000 м ясно +20.7 +15.4 72 +25 +25 комфорт 1011.7 1013.2
00 22.08 СЗ 1 4000 м ясно +16.5 +13.8 84 +17 +17 прохладно 1011.1 1012.6
03 22.08 З 1 20 км ясно +17.6 +13.5 77 +19 +19 прохладно 1012.3 1013.7
06 22.08 В 2 20 км ясно +29.6 +18.1 50 +34 +45 очень
душно
1012.2 1013.7 +15.7
09 22.08 ЮВ 1 20 км ясно +31.2 +21.3 56 +39 +59 опасность
солнечного
удара
1010.8 1012.3
12 22.08 В 3 10 км ясно +31.1 +21.5 57 +39 +46 очень
душно
1009.6 1011.1
15 22.08 Ю 1 10 км ясно +27.7 +21.9 71 +36 +36 очень
душно
1009.3 1010.8
18 22.08 ЮВ 3 4000 м ясно +25.0 +20.9 78 +31 +31 очень
душно
1010.1 1011.6 +32.5
21 22.08 Ю 1 4000 м ясно +22.4 +18.3 78 +28 +28 душно 1010.3 1011.8
00 23.08 З 1 4000 м ясно +17.9 +14.6 81 +19 +19 по сезону 1010.7 1012.2
03 23.08 ЮЗ 1 20 км ясно +20.5 +14.1 67 +24 +25 комфорт 1011.4 1012.9
06 23.08 В 2 20 км ясно +29.8 +20.6 58 +37 +47 очень
душно
1011.8 1013.3 +14.6
09 23.08 ЮВ 4 20 км ясно +32.2 +21.5 53 +40 +52 опасность
солнечного
удара
1011.0 1012.5
12 23.08 ЮВ 3 20 км ясно +32.3 +21.0 51 +40 +47 очень
душно
1009.9 1011.4
15 23.08 Ю 3 20 км ясно +28.5 +23.2 73 +38 +38 очень
душно
1009.4 1010.9
18 23.08 ЮВ 3 4000 м ясно +26.4 +23.0 82 +35 +35 очень
душно
1010.0 1011.5 +32.9
21 23.08 Ю 1 4000 м ясно +24.0 +21.3 85 +30 +30 очень
душно
1009.5 1011.0
00 24.08 З 1 4000 м ясно +21.3 +19.3 88 +26 +26 душно 1010.7 1012.2
03 24.08 ЮЗ 1 20 км ясно +20.6 +16.1 75 +25 +26 комфорт 1011.7 1013.2
06 24.08 ЮВ 2 20 км ясно +28.9 +23.1 71 +39 +49 очень
душно
1012.1 1013.6 +17.9
09 24.08 ЮВ 3 20 км ясно +32.6 +21.5 52 +41 +55 опасность
перегрева
1010.6 1012.1
12 24.08 Ю 3 20 км ясно +31.3 +22.4 59 +40 +47 очень
душно
1010.0 1011.5
15 24.08 ЮВ 2 20 км 3/3 600 м
[Cu hum]
+28.6 +23.8 75 +39 +39 очень
душно
1010.0 1011.5
18 24.08 Ю 1 4000 м ясно +25.3 +23.9 92 +35 +35 очень
душно
1011.7 1013.2 +32.6
21 24.08 СЗ 1 4000 м ясно +22.3 +20.4 89 +29 +29 очень
душно
1011.5 1013.0
00 25.08 ЮЗ 1 4000 м ясно +21.7 +20.6 93 +27 +27 душно 1011.3 1012.8
03 25.08 З 1 20 км ясно +19.6 +17.4 87 +23 +24 комфорт 1012.0 1013.5
06 25.08 штиль 0 20 км ясно +29.8 +21.4 61 +38 +52 опасность
солнечного
удара
1012.8 1014.3 +19.5
09 25.08 штиль 0 20 км ясно +32.7 +21.5 52 +41 +64 опасность
перегрева
1011.8 1013.3
12 25.08 В 2 20 км ясно +31.3 +23.2 62 +42 +50 опасность
перегрева
1011.2 1012.7

 

Местоположение метеостанции Лянкяран (Азербайджан): широта 38.73 долгота 48.83 высота над уровнем моря -12 м.

В архиве по умолчанию представлена погода в Лянкяране за последнюю неделю. Архивные данные за месяц целиком и за предыдущие месяцы, начиная с января 2011 года, Вы можете получить, выбрав интересующий диапазон дат из раскрывающегося списка и нажав кнопку "Ввод!".


*Определитесь, кто Вы:
робот инопланетянин человек

Внимание! Время в таблицах - всемирное. Для получения местного времени необходимо прибавить поправку, которая равна 4 ч.

Смотрите также архив погоды в соседних городах и на ближайших метеорологических станциях:

Погода в Астаре (Азербайджан) (31 км)
Погода в Ардебиле (Иран) (72 км)
Погода в Нефтечале (Азербайджан) (83 км)
Погода в Парсабаде (Иран) (129 км)
Погода в Серабе (Иран) (144 км)
Погода в Алате (Азербайджан) (146 км)
Погода в Беылагане (Азербайджан) (148 км)
Погода в Энзели (Иран) (151 км)
Погода в Ахаре (Иран) (157 км)
Погода в Миане (Иран) (173 км)

Пояснения к столбцам:

Ветер - указаны скорость ветра в м/с - средняя за 10 мин, порывы в срок и между сроками (в фигурных скобках) и направление, откуда дует ветер: С - северный, СВ - северо-восточный, В - восточный, ЮВ - юго-восточный, Ю - южный, ЮЗ - юго-западный, З - западный, СЗ - северо-западный.
Видимость - горизонтальная дальность видимости в метрах или километрах. При видимости от 1 до 10 км при отсутствии осадков обычно наблюдается дымка, при ухудшении видимости до 1 км и менее - туман. В сухую погоду видимость может ухудшаться дымом, пылью или мглою.
Явления - указаны атмосферные явления, наблюдавшиеся в срок или в последний час перед сроком; фигурными скобками обозначены явления, наблюдавшиеся между сроками (за 1-3 часа до срока); квадратными скобками обозначены град или гололедные отложения с указанием их диаметра в мм.
Облачность - указаны через наклонную черту общая и нижняя облачность в баллах и высота нижней границы облаков в метрах; квадратными скобками обозначены формы облаков: Ci - перистые, Cs - перисто-слоистые, Cc - перисто-кучевые, Ac - высококучевые, As - высокослоистые, Sc - слоисто-кучевые, Ns - слоисто-дождевые, Cu - кучевые, Cb - кучево-дождевые. Подробнее классификацию облаков см. в Атласе облаков (PDF).
T - Температура воздуха - температура, измеренная на высоте 2 м над землей.
Td - Температура точки росы - температура, при понижении до которой содержащийся в воздухе водяной пар достигнет насыщения.
f - Относительная влажность воздуха - влажноcть воздуха, измеренная на высоте 2 м над землей.
Te - Эффективная температура - температура, которую ощущает одетый по сезону человек в тени. Характеристика душности погоды. При расчете учитывается влияние влажности воздуха и скорости ветра на теплоощущения человека.
Tes - Эффективная температура на солнце - температура, которую ощущает человек, с поправкой на солнечный нагрев. Характеристика знойности погоды. Зависит от высоты солнца над горизонтом, облачности и скорости ветра. Ночью, в пасмурную погоду, а также при ветре 12 м/с и более поправка равна нулю.
P - Атмосферное давление - приведенное к уровню моря атмосферное давление.
Po - Атмосферное давление - измеренное на уровне метеостанции атмосферное давление.
Tmin - Минимальная температура - минимум температуры воздуха на высоте 2 м над землей.
Tmax - Максимальная температура - максимум температуры воздуха на высоте 2 м над землей.
R - Количество осадков - Количество выпавших осадков за период времени, мм. При наведении курсора мыши на число - период времени, за который выпало указанное количество осадков.
R24 - Количество осадков - Количество выпавших осадков за 24 часа, мм.
S - Снежный покров - Высота снежного покрова, см. При наведении курсора мыши на число - состояние снежного покрова и степень покрытия местности в баллах.